Regional Weather Roundup
Issued by NWS

Home | Current Version | Previous Version | Graphics & Text | Print | Product List | Glossary Off
Versions: 1 2 3 4 5 6 7 8 9 10 11 12 13 14 15 16 17 18 19 20 21 22 23 24 25 26 27 28 29 30 31 32 33 34 35 36 37 38 39 40 41 42 43 44 45 46 47 48 49 50

930
ASUS43 KDMX 162206
RWRIA

WEATHER ROUNDUP FOR IOWA
NATIONAL WEATHER SERVICE DES MOINES IA
400 PM CST TUE JAN 16 2018

NOTE: "FAIR" INDICATES FEW OR NO CLOUDS BELOW 12,000 FEET WITH NO
SIGNIFICANT WEATHER AND/OR OBSTRUCTIONS TO VISIBILITY.

* - THESE STATIONS ARE NOT NWS STATIONS...THUS NOT UNDER NWS
QUALITY CONTROL.  THEY ALSO DO NOT REPORT WEATHER SUCH
AS PRECIPITATION OR FOG.

IAZ001>003-012>014-020>022-031>034-043>046-162300-
   NORTHWEST IOWA

CITY           SKY/WX    TMP DP  RH WIND       PRES   REMARKS
CARROLL *      MOSUNNY    7   1  78 W9        30.66S WCI  -7
CHEROKEE *     SUNNY      8   1  76 W8        30.67S WCI  -5
DENISON *      SUNNY      7   0  72 W7        30.69S WCI  -5
LE MARS *      SUNNY      9   1  72 W7        30.67F WCI  -3
ORANGE CITY *  SUNNY      9   3  78 NW7       30.63F WCI  -3
SHELDON *      SUNNY      5   0  78 W8        30.62F WCI  -8
SIOUX CITY     SUNNY     10   1  67 NW9       30.69F WCI  -3
SPENCER        SUNNY      7  -1  70 W10       30.63F WCI  -8
STORM LAKE *   SUNNY      5   0  78 W10       30.63S WCI -10
$$

IAZ055>058-069>071-079>083-090>094-162300-
   SOUTHWEST IOWA

CITY           SKY/WX    TMP DP  RH WIND       PRES   REMARKS
ATLANTIC *     PTSUNNY    7   0  72 NW8       30.69S WCI  -6
AUDUBON *      SUNNY      7   0  72 W5        30.67S WCI  -2
CLARINDA *     CLOUDY     7   1  78 NW9G15    30.73F WCI  -7
COUNCIL BLFS * SUNNY      9   3  78 NW6       30.68F WCI  -1
CRESTON *      CLOUDY     7   1  78 NW12      30.67S WCI  -9
HARLAN  *      SUNNY      7   0  72 NW7       30.72S WCI  -5
LAMONI         SUNNY      9   0  67 NW13      30.66S WCI  -7
RED OAK *      CLOUDY     9   1  72 NW9       30.71F WCI  -5
SHENANDOAH *   MOSUNNY    9   1  72 NW7       30.73S WCI  -3
$$

IAZ047>049-059>061-072>074-084-162300-
   CENTRAL IOWA

CITY           SKY/WX    TMP DP  RH WIND       PRES   REMARKS
AMES           CLEAR      6   0  76 NW13      30.67R WCI -10
ANKENY *       PTSUNNY    5  -2  72 W10       30.69S WCI -10
BOONE *        CLEAR      3  -2  78 NW15      30.64S WCI -15
CHARITON *     MOSUNNY    7   0  72 NW14      30.66S WCI -10
DES MOINES     PTSUNNY    6  -1  73 NW10      30.67F WCI  -9
GRINNELL*      CLEAR      7   2  80 NW13      30.64S WCI  -9
KNOXVILLE *    CLOUDY     9  -2  61 W13       30.66R WCI  -7
MARSHALLTOWN   CLEAR      7   1  76 NW13      30.63S WCI  -9
NEWTON *       PTCLDY     7   1  78 NW10      30.65S WCI  -8
PELLA *        CLOUDY     8   1  75 NW13      30.68R WCI  -8
PERRY *          N/A      5  -1  77 NW9       30.68S WCI  -9
$$

IAZ004>006-015-016-023>025-035-036-162300-
   NORTH CENTRAL IOWA

CITY           SKY/WX    TMP DP  RH WIND       PRES   REMARKS
ALGONA *       CLEAR      5 N/A N/A NW9       30.63F WCI  -9
CLARION *      MOCLDY     3   0  85 NW12      30.65S WCI -13
ESTHERVILLE    CLEAR      6   0  76 NW9       30.62F WCI  -8
FORT DODGE *   CLEAR      5  -2  72 NW8       30.66S WCI  -8
MASON CITY     CLOUDY     4  -2  76 NW10      30.63S WCI -11
FOREST CITY *    N/A      5   0  78 NW10      30.63S WCI -10
WEBSTER CITY * PTCLDY     5  -4  66 NW13      30.64S WCI -12
IOWA FALLS *     N/A      7   1  76 W13       30.64S HAZE    WCI -10
$$

IAZ007>011-017>019-026>030-037>042-050>054-066-162300-
   NORTHEAST IOWA

CITY           SKY/WX    TMP DP  RH WIND       PRES   REMARKS
CEDAR RAPIDS     N/A     10   2  69 NW13      30.60S WCI  -5
CHARLES CITY *   N/A      7   1  78 NW7       30.61S WCI  -5
CLINTON *        N/A     17  11  77 W15       30.58R WCI   2
DECORAH *        N/A     12   5  73 NW6       30.56R WCI   3
DUBUQUE          N/A     14   6  70 W9        30.54R WCI   2
MONTICELLO *   FLURRIES  14   7  73 NW12      30.59R WCI   0
OELWEIN *        N/A      9   5  85 NW14      30.60R WCI  -8
WATERLOO         N/A      7  -1  70 W7        30.63R WCI  -5
$$

IAZ064-065-067-068-078-162300-
   EAST CENTRAL IOWA

CITY           SKY/WX    TMP DP  RH WIND       PRES   REMARKS
DAVENPORT        N/A     16   8  71 W15       30.60R WCI   1
IOWA CITY        N/A     12   3  67 W14       30.65R WCI  -3
MT. PLEASANT * CLEAR     10   1  67 NW9       30.65R WCI  -2
MUSCATINE *    CLOUDY    12   5  73 NW13      30.65R WCI  -3
QUAD CITIES      N/A     16   8  71 W14       30.59R WCI   2
$$

IAZ062-063-075>077-085>089-095>099-162300-
   SOUTHEAST IOWA

CITY           SKY/WX    TMP DP  RH WIND       PRES   REMARKS
BURLINGTON     CLEAR     11   1  64 NW10      30.63R WCI  -3
FAIRFIELD *    MOCLDY     9  -2  61 NW14      30.65R WCI  -8
FORT MADISON * CLEAR      9   1  72 W13       30.64S WCI  -7
KEOKUK *       PTCLDY    10   3  72 W10       30.64S WCI  -3
OSKALOOSA *      N/A      7   1  75 NW15G21   30.66S WCI -10
OTTUMWA        CLEAR      8  -1  66 NW10      30.65S WCI  -6
WASHINGTON *   PTCLDY     9   3  78 NW13      30.65R WCI  -7
$$

ABBREVIATIONS USED IN REMARKS
   TC - TEMPERATURES IN CELSIUS
  WCI - WIND CHILL INDEX
   HX - HEAT INDEX
  VSB - VISIBILITY
$$





USA.gov is the U.S. government's official web portal to all federal, state and local government web resources and services.